Location: Henham
(51.9333°N, 0.2500°E)
Time: 02:38:46
(UTC+00:00)

STARLINK-24 - Pass Details

Date: 23 October 2019
Orbit: 550 x 553 km, 53.0° (Epoch: 18 November)

Event Time Altitude Azimuth Distance (km) Brightness Sun altitude
Rises 17:15:05 0° 268° (W) 2,721 9.4 -4.7°
Reaches altitude 10° 17:17:19 10° 270° (W) 1,828 8.0 -5.1°
Maximum altitude 17:21:28 76° 356° (N) 573 3.7 -5.7°
Drops below altitude 10° 17:25:38 10° 83° (E) 1,829 5.6 -6.3°
Enters shadow 17:26:03 - 84° (E) 1,993 5.8 -6.4°
